DW8501 Madrid ES current weather conditions

sailwx.info

Wind from 052 at 2 knots gusting 5

Air temperature 10.0° C
Dewpoint 5.8° C

Last reported at 2017-Oct-23 07:10 UTC.
Time now 2017-Oct-23 08:16 UTC

Location: N 40°27' W 003°35'.
View on Google Maps.

See reports from other nearby stations

  
Tides and Currents Weather Stations Pressure Air Temp Water Temp Dewpoint Dewpoint Depression Visibility Wind Speed Wind Dir Waves Ship Positions
date/time (UTC)wind fromknots sea level pressurealtimeterstation pressurevisibilityair tempwater tempwave heightnotes
2017-Oct-23 07:10 052 2 gusting 5 10.0
2017-Oct-23 07:05 051 3 gusting 4 10.0
2017-Oct-23 07:00 043 1 gusting 4 9.4
2017-Oct-23 06:55 041 1 gusting 4 8.9
2017-Oct-23 06:50 045 3 gusting 5 8.9
2017-Oct-23 06:45 045 1 gusting 5 8.3
2017-Oct-23 06:40 046 3 gusting 6 8.3
2017-Oct-23 06:35 045 3 gusting 6 8.3
2017-Oct-23 06:30 046 3 gusting 5 8.3
2017-Oct-23 06:25 045 2 gusting 4 8.3
2017-Oct-23 06:20 045 1 gusting 4 8.3
2017-Oct-23 06:15 041 1 gusting 4 7.8
2017-Oct-23 06:10 019 3 gusting 4 7.8
2017-Oct-23 06:05 355 1 gusting 4 7.8
2017-Oct-23 06:00 353 2 gusting 3 7.8
2017-Oct-23 05:55 012 1 gusting 4 8.3
2017-Oct-23 05:50 023 1 gusting 4 8.3
2017-Oct-23 05:45 037 3 gusting 6 8.3
2017-Oct-23 05:40 041 1 gusting 6 8.3
2017-Oct-23 05:35 030 2 gusting 6 8.3
2017-Oct-23 05:30 032 3 gusting 6 8.3
2017-Oct-23 05:25 040 3 gusting 6 8.3
2017-Oct-23 05:20 044 2 gusting 4 8.3
2017-Oct-23 05:15 046 1 gusting 3 8.3
2017-Oct-23 05:10 053 1 gusting 3 8.3
2017-Oct-23 05:05 055 1 gusting 3 8.3
2017-Oct-23 05:00 050 1 gusting 3 8.3
2017-Oct-23 04:55 044 0 gusting 5 8.3
2017-Oct-23 04:50 048 0 gusting 5 8.3
2017-Oct-23 04:45 055 1 gusting 5 8.3
2017-Oct-23 04:40 056 1 gusting 4 8.9
2017-Oct-23 04:35 056 1 gusting 4 8.9
2017-Oct-23 04:30 053 2 gusting 4 8.9
2017-Oct-23 04:25 056 2 gusting 5 8.9
2017-Oct-23 04:20 048 3 gusting 7 8.9
2017-Oct-23 04:15 039 3 gusting 7 8.9
2017-Oct-23 04:10 043 3 gusting 6 8.9
2017-Oct-23 04:05 043 3 gusting 7 8.9
2017-Oct-23 04:00 042 3 gusting 8 8.9
2017-Oct-23 03:55 041 3 gusting 8 9.4
2017-Oct-23 03:50 039 6 gusting 6 9.4
2017-Oct-23 03:45 049 3 gusting 6 9.4
2017-Oct-23 03:40 052 2 gusting 8 9.4
2017-Oct-23 03:35 049 5 gusting 8 9.4
2017-Oct-23 03:30 051 1 gusting 6 9.4
2017-Oct-23 03:25 047 1 gusting 6 9.4
2017-Oct-23 03:20 054 3 gusting 6 9.4
2017-Oct-23 03:15 050 2 gusting 6 9.4
2017-Oct-23 03:10 046 3 gusting 6 9.4
2017-Oct-23 03:05 053 5 gusting 8 9.4
2017-Oct-23 03:00 046 4 gusting 8 10.0
2017-Oct-23 02:55 039 6 gusting 7 10.0
2017-Oct-23 02:50 050 3 gusting 7 10.0
2017-Oct-23 02:45 052 5 gusting 6 10.0
2017-Oct-23 02:40 046 1 gusting 4 10.0
2017-Oct-23 02:35 037 1 gusting 3 10.0
2017-Oct-23 02:30 038 1 gusting 3 10.0
2017-Oct-23 02:25 045 2 gusting 5 10.0
2017-Oct-23 02:20 043 1 gusting 5 10.0
2017-Oct-23 02:15 043 3 gusting 4 10.6
2017-Oct-23 02:10 045 1 gusting 4 10.6
2017-Oct-23 02:05 045 3 gusting 6 10.6
2017-Oct-23 02:00 043 3 gusting 6 10.6
2017-Oct-23 01:55 042 3 gusting 6 10.6
2017-Oct-23 01:50 043 3 gusting 6 10.6
2017-Oct-23 01:45 043 2 gusting 6 10.6
2017-Oct-23 01:40 045 1 gusting 6 10.6
2017-Oct-23 01:35 045 1 gusting 4 10.6
2017-Oct-23 01:30 040 2 gusting 3 10.6
2017-Oct-23 01:25 034 1 gusting 5 10.6
2017-Oct-23 01:20 044 1 gusting 5 10.6
2017-Oct-23 01:15 051 1 gusting 6 10.6
2017-Oct-23 01:10 047 2 gusting 6 11.1
2017-Oct-23 01:05 053 3 gusting 6 11.1
2017-Oct-23 01:00 055 3 gusting 6 11.1
2017-Oct-23 00:55 051 3 gusting 6 11.1
2017-Oct-23 00:50 046 2 gusting 6 11.1
2017-Oct-23 00:45 046 1 gusting 6 11.1
2017-Oct-23 00:40 041 1 gusting 6 11.1
2017-Oct-23 00:35 047 3 gusting 6 11.1
2017-Oct-23 00:30 053 3 gusting 8 11.7
2017-Oct-23 00:25 045 3 gusting 8 11.7
2017-Oct-23 00:20 045 5 gusting 8 11.7
2017-Oct-23 00:15 043 6 gusting 8 11.7
2017-Oct-23 00:10 043 6 gusting 7 11.7
2017-Oct-23 00:05 059 3 gusting 5 11.7
2017-Oct-23 00:00 073 3 gusting 5 11.7
2017-Oct-22 23:55 056 1 gusting 6 11.7
2017-Oct-22 23:50 046 1 gusting 6 11.7
2017-Oct-22 23:45 046 2 gusting 6 12.2
2017-Oct-22 23:40 045 3 gusting 6 12.2
2017-Oct-22 23:35 039 2 gusting 6 12.2
2017-Oct-22 23:30 038 3 gusting 7 12.2
2017-Oct-22 23:25 042 3 gusting 8 12.2
2017-Oct-22 23:20 042 4 gusting 8 12.2
2017-Oct-22 23:15 037 6 gusting 8 12.2
2017-Oct-22 23:10 031 2 gusting 7 12.2
2017-Oct-22 23:05 023 4 gusting 6 12.2
2017-Oct-22 23:00 008 1 gusting 3 12.2
2017-Oct-22 22:55 007 2 gusting 3 12.8
2017-Oct-22 22:50 032 1 gusting 3 13.3
2017-Oct-22 22:45 047 0 gusting 5 13.3
2017-Oct-22 22:40 053 1 gusting 6 13.3
2017-Oct-22 22:35 053 2 gusting 6 13.3
2017-Oct-22 22:30 041 2 gusting 6 13.3
2017-Oct-22 22:25 037 3 gusting 5 13.3
2017-Oct-22 22:20 044 2 gusting 3 13.3
2017-Oct-22 22:15 049 1 gusting 3 13.3
2017-Oct-22 22:10 047 1 gusting 3 13.3
2017-Oct-22 22:05 046 1 gusting 4 13.3
2017-Oct-22 22:00 044 1 gusting 4 13.3
2017-Oct-22 21:55 042 1 gusting 3 13.3
2017-Oct-22 21:50 049 0 gusting 3 13.3
2017-Oct-22 21:45 048 1 gusting 3 13.3
2017-Oct-22 21:40 041 0 gusting 3 13.3
2017-Oct-22 21:35 040 0 gusting 2 13.3
2017-Oct-22 21:30 13.3
2017-Oct-22 21:25 13.9
2017-Oct-22 21:20 047 1 gusting 3 13.9
2017-Oct-22 21:15 048 1 gusting 2 13.9
2017-Oct-22 21:10 13.9
2017-Oct-22 21:05 13.9
2017-Oct-22 21:00 048 0 gusting 2 14.4
2017-Oct-22 20:55 048 0 gusting 2 14.4
2017-Oct-22 20:50 047 0 gusting 1 14.4
2017-Oct-22 20:45 047 0 gusting 2 14.4
2017-Oct-22 20:40 052 0 gusting 2 14.4
2017-Oct-22 20:35 055 1 gusting 2 14.4
2017-Oct-22 20:30 14.4
2017-Oct-22 20:25 052 1 gusting 3 14.4
2017-Oct-22 20:20 059 1 gusting 3 14.4
2017-Oct-22 20:15 074 0 gusting 2 14.4
2017-Oct-22 20:10 066 0 gusting 2 14.4
2017-Oct-22 20:05 14.4
2017-Oct-22 20:00 14.4
2017-Oct-22 19:55 14.4
2017-Oct-22 19:50 14.4
2017-Oct-22 19:45 14.4
2017-Oct-22 19:40 14.4
2017-Oct-22 19:35 14.4
2017-Oct-22 19:30 14.4
2017-Oct-22 19:25 14.4
2017-Oct-22 19:20 15.0
2017-Oct-22 19:15 14.4
2017-Oct-22 19:10 14.4
2017-Oct-22 19:05 15.0
2017-Oct-22 19:00 15.0
2017-Oct-22 18:55 15.0
2017-Oct-22 18:50 15.0
2017-Oct-22 18:45 15.0
2017-Oct-22 18:40 15.6
2017-Oct-22 18:35 15.6
2017-Oct-22 18:30 15.6
2017-Oct-22 18:25 15.6
2017-Oct-22 18:20 15.6
2017-Oct-22 18:15 16.1
2017-Oct-22 18:10 16.1
2017-Oct-22 18:05 16.7
2017-Oct-22 18:00 16.7
2017-Oct-22 17:55 16.7
2017-Oct-22 17:50 16.7
2017-Oct-22 17:45 17.2
2017-Oct-22 17:40 17.2
2017-Oct-22 17:35 17.8
2017-Oct-22 17:30 090 0 gusting 3 17.8
2017-Oct-22 17:25 097 0 gusting 2 17.8
2017-Oct-22 17:20 108 0 gusting 2 17.8
2017-Oct-22 17:15 18.3
2017-Oct-22 17:10 106 1 gusting 2 18.3
2017-Oct-22 17:05 122 1 gusting 1 18.9
2017-Oct-22 17:00 18.9
2017-Oct-22 16:55 18.9
2017-Oct-22 16:50 18.9
2017-Oct-22 16:45 071 2 gusting 4 19.4
2017-Oct-22 16:40 072 1 gusting 4 19.4
2017-Oct-22 16:35 089 1 gusting 3 19.4
2017-Oct-22 16:30 078 1 gusting 5 20.0
2017-Oct-22 16:25 072 1 gusting 5 20.0
2017-Oct-22 16:20 053 1 gusting 5 20.6
2017-Oct-22 16:15 080 1 gusting 4 20.6
2017-Oct-22 16:10 090 1 gusting 4 21.1
2017-Oct-22 16:05 073 1 gusting 5 21.1
2017-Oct-22 16:00 059 1 gusting 5 21.7
2017-Oct-22 15:55 21.7
2017-Oct-22 15:50 056 1 gusting 6 21.1
2017-Oct-22 15:45 091 1 gusting 5 21.7
2017-Oct-22 15:40 103 2 gusting 5 21.7
2017-Oct-22 15:35 117 1 gusting 3 22.8
2017-Oct-22 15:30 040 2 gusting 3 23.9
2017-Oct-22 15:25 005 1 gusting 3 23.3
2017-Oct-22 15:20 080 0 gusting 2 23.9
2017-Oct-22 15:15 23.9
2017-Oct-22 15:10 048 0 gusting 4 23.3
2017-Oct-22 15:05 22.2
2017-Oct-22 15:00 088 1 gusting 3 22.8
2017-Oct-22 14:55 086 1 gusting 5 22.2
2017-Oct-22 14:50 051 0 gusting 5 21.1
2017-Oct-22 14:45 053 1 gusting 6 21.7
2017-Oct-22 14:40 082 2 gusting 6 22.2
2017-Oct-22 14:35 22.2
2017-Oct-22 14:30 082 0 gusting 6 21.1
2017-Oct-22 14:25 042 1 gusting 7 21.1
2017-Oct-22 14:20 018 5 gusting 7 21.7
2017-Oct-22 14:15 354 1 gusting 6 21.7
2017-Oct-22 14:10 041 3 gusting 6 21.1
2017-Oct-22 14:05 081 2 gusting 6 20.6
2017-Oct-22 14:00 097 3 gusting 6 20.6
2017-Oct-22 13:55 076 1 gusting 7 20.0
2017-Oct-22 13:50 048 3 gusting 7 20.0
2017-Oct-22 13:45 049 3 gusting 9 19.4
2017-Oct-22 13:40 066 6 gusting 9 20.0
2017-Oct-22 13:35 101 4 gusting 7 21.1
2017-Oct-22 13:30 112 0 gusting 4 21.1
2017-Oct-22 13:25 126 2 gusting 5 20.6
2017-Oct-22 13:20 135 3 gusting 5 20.6
2017-Oct-22 13:15 111 3 gusting 6 20.0
2017-Oct-22 13:10 087 2 gusting 6 19.4
2017-Oct-22 13:05 090 3 gusting 7 19.4
2017-Oct-22 13:00 081 1 gusting 7 18.9
2017-Oct-22 12:55 065 3 gusting 7 19.4
2017-Oct-22 12:50 065 2 gusting 9 19.4
2017-Oct-22 12:45 061 1 gusting 9 18.9
2017-Oct-22 12:40 055 6 gusting 9 20.0
2017-Oct-22 12:35 029 0 gusting 6 19.4
2017-Oct-22 12:30 034 3 gusting 9 18.3
2017-Oct-22 12:25 050 3 gusting 9 18.9
2017-Oct-22 12:20 066 1 gusting 8 18.9
2017-Oct-22 12:15 052 1 gusting 9 18.3
2017-Oct-22 12:10 060 6 gusting 10 18.3
2017-Oct-22 12:05 086 3 gusting 11 17.8
2017-Oct-22 12:00 096 7 gusting 11 18.3
2017-Oct-22 11:55 100 6 gusting 10 18.3
2017-Oct-22 11:50 090 1 gusting 12 18.3
2017-Oct-22 11:45 080 8 gusting 12 17.8
2017-Oct-22 11:40 089 4 gusting 12 17.2
2017-Oct-22 11:35 101 3 gusting 9 17.2
2017-Oct-22 11:30 115 5 gusting 9 17.8
2017-Oct-22 11:25 096 4 gusting 9 17.2
2017-Oct-22 11:20 054 3 gusting 14 17.2
2017-Oct-22 11:15 041 6 gusting 14 16.7
2017-Oct-22 11:10 052 4 gusting 12 16.7
2017-Oct-22 11:05 058 6 gusting 12 16.7
2017-Oct-22 11:00 066 6 gusting 11 17.2
2017-Oct-22 10:55 080 3 gusting 11 16.7
2017-Oct-22 10:50 067 5 gusting 11 16.7
2017-Oct-22 10:45 058 2 gusting 13 16.7
2017-Oct-22 10:40 048 9 gusting 13 16.1
2017-Oct-22 10:35 044 9 gusting 13 16.7
2017-Oct-22 10:30 064 1 gusting 8 16.7
2017-Oct-22 10:25 083 5 gusting 9 16.1
2017-Oct-22 10:20 084 3 gusting 9 16.1
2017-Oct-22 10:15 060 5 gusting 8 16.7
2017-Oct-22 10:10 067 4 gusting 9 16.1
2017-Oct-22 10:05 090 4 gusting 9 16.1
2017-Oct-22 10:00 082 1 gusting 10 15.6
2017-Oct-22 09:55 069 3 gusting 10 15.6
2017-Oct-22 09:50 074 3 gusting 10 15.6
2017-Oct-22 09:45 062 5 gusting 9 15.6
2017-Oct-22 09:40 055 1 gusting 6 15.6
2017-Oct-22 09:35 071 3 gusting 6 15.0
2017-Oct-22 09:30 051 3 gusting 6 15.0
2017-Oct-22 09:25 051 3 gusting 6 15.0
2017-Oct-22 09:20 072 2 gusting 6 15.0
2017-Oct-22 09:15 059 2 gusting 6 14.4
2017-Oct-22 09:10 052 1 gusting 6 13.9
2017-Oct-22 09:05 066 3 gusting 7 14.4
2017-Oct-22 09:00 081 3 gusting 7 14.4
2017-Oct-22 08:55 071 1 gusting 5 14.4
2017-Oct-22 08:50 059 2 gusting 6 14.4
2017-Oct-22 08:45 073 2 gusting 6 13.9
2017-Oct-22 08:40 062 2 gusting 6 13.3
2017-Oct-22 08:35 055 2 gusting 6 13.3
2017-Oct-22 08:30 054 3 gusting 8 13.3
2017-Oct-22 08:25 041 2 gusting 8 12.2
2017-Oct-22 08:20 043 6 gusting 8 12.2
2017-Oct-22 08:15 054 6 gusting 8 11.7
2017-Oct-22 08:10 050 3 gusting 9 11.7
2017-Oct-22 08:05 048 5 gusting 9 11.7
2017-Oct-22 08:00 056 4 gusting 8 11.7
2017-Oct-22 07:55 054 6 gusting 8 11.7
2017-Oct-22 07:50 049 5 gusting 9 11.7
2017-Oct-22 07:45 049 5 gusting 9 11.7
2017-Oct-22 07:40 048 5 gusting 8 11.7
2017-Oct-22 07:35 052 3 gusting 9 11.7
2017-Oct-22 07:30 047 6 gusting 9 11.7
2017-Oct-22 07:25 043 5 gusting 9 11.7
2017-Oct-22 07:20 053 3 gusting 8 11.7
2017-Oct-22 07:15 049 5 gusting 6 11.7
2017-Oct-22 07:10 038 4 gusting 6 11.7
2017-Oct-22 07:05 042 2 gusting 6 11.1
2017-Oct-22 07:00 041 1 gusting 6 11.1
2017-Oct-22 06:55 045 2 gusting 6 10.6
2017-Oct-22 06:50 035 3 gusting 6 10.6
2017-Oct-22 06:45 023 1 gusting 5 10.6
2017-Oct-22 06:40 036 1 gusting 5 10.6
2017-Oct-22 06:35 037 1 gusting 6 10.6
2017-Oct-22 06:30 042 2 gusting 6 10.6
2017-Oct-22 06:25 049 3 gusting 6 10.6
2017-Oct-22 06:20 045 1 gusting 5 10.6
2017-Oct-22 06:15 042 2 gusting 5 10.6
2017-Oct-22 06:10 042 2 gusting 4 10.6
2017-Oct-22 06:05 042 2 gusting 4 10.6
2017-Oct-22 06:00 048 3 gusting 3 10.6
2017-Oct-22 05:55 051 1 gusting 4 10.6
2017-Oct-22 05:50 043 1 gusting 4 10.6
2017-Oct-22 05:45 041 1 gusting 3 10.6
2017-Oct-22 05:40 041 1 gusting 4 10.6
2017-Oct-22 05:35 048 1 gusting 4 10.6
2017-Oct-22 05:30 050 1 gusting 5 10.6
2017-Oct-22 05:25 042 2 gusting 5 10.6
2017-Oct-22 05:20 034 0 gusting 2 10.6
2017-Oct-22 05:15 024 1 gusting 3 10.6
2017-Oct-22 05:10 032 1 gusting 4 10.6
2017-Oct-22 05:05 041 2 gusting 6 10.6
2017-Oct-22 05:00 043 2 gusting 6 11.1
2017-Oct-22 04:55 046 2 gusting 5 11.1
2017-Oct-22 04:50 044 3 gusting 6 11.1
2017-Oct-22 04:45 042 2 gusting 6 11.1
2017-Oct-22 04:40 039 2 gusting 5 11.1
2017-Oct-22 04:35 038 1 gusting 5 11.1
2017-Oct-22 04:30 043 1 gusting 5 11.1
2017-Oct-22 04:25 045 3 gusting 6 11.1
2017-Oct-22 04:20 048 2 gusting 6 11.1
2017-Oct-22 04:15 048 3 gusting 5 11.7
2017-Oct-22 04:10 048 2 gusting 5 11.7
2017-Oct-22 04:05 046 1 gusting 3 11.7
2017-Oct-22 04:00 043 1 gusting 4 11.7
2017-Oct-22 03:55 042 1 gusting 4 11.7
2017-Oct-22 03:50 042 1 gusting 5 11.7
2017-Oct-22 03:45 048 1 gusting 5 11.7
2017-Oct-22 03:40 054 3 gusting 5 11.7
2017-Oct-22 03:35 051 1 gusting 5 11.7
2017-Oct-22 03:30 046 1 gusting 4 11.7
2017-Oct-22 03:25 045 1 gusting 3 11.7
2017-Oct-22 03:20 048 1 gusting 3 11.7
2017-Oct-22 03:15 048 1 gusting 4 11.7
2017-Oct-22 03:10 046 1 gusting 4 11.7
2017-Oct-22 03:05 049 3 gusting 5 11.7
2017-Oct-22 03:00 052 1 gusting 5 11.7
2017-Oct-22 02:55 051 1 gusting 5 12.2
2017-Oct-22 02:50 047 1 gusting 5 12.2
2017-Oct-22 02:45 045 2 gusting 5 12.2
2017-Oct-22 02:40 045 2 gusting 3 11.7
2017-Oct-22 02:35 045 1 gusting 2 11.7
2017-Oct-22 02:30 045 0 gusting 3 11.7
2017-Oct-22 02:25 042 1 gusting 3 11.7
2017-Oct-22 02:20 035 1 gusting 3 11.7
2017-Oct-22 02:15 11.7
2017-Oct-22 02:10 11.7
2017-Oct-22 02:05 11.7
2017-Oct-22 02:00 11.7
2017-Oct-22 01:55 090 0 gusting 1 11.7
2017-Oct-22 01:50 092 0 gusting 1 11.7
2017-Oct-22 01:45 11.7
2017-Oct-22 01:40 12.2
2017-Oct-22 01:35 12.2
2017-Oct-22 01:30 072 0 gusting 1 12.2
2017-Oct-22 01:25 12.2
2017-Oct-22 01:20 12.8
2017-Oct-22 01:15 093 1 gusting 3 12.8
2017-Oct-22 01:10 090 0 gusting 1 12.8
2017-Oct-22 01:05 102 0 gusting 2 13.3
2017-Oct-22 01:00 114 1 gusting 2 13.3
2017-Oct-22 00:55 112 1 gusting 2 13.3
2017-Oct-22 00:50 092 1 gusting 2 13.3
2017-Oct-22 00:45 079 1 gusting 2 13.3
2017-Oct-22 00:40 083 1 gusting 2 13.3
2017-Oct-22 00:35 091 0 gusting 2 13.3
2017-Oct-22 00:30 084 1 gusting 2 13.3
2017-Oct-22 00:25 13.3
2017-Oct-22 00:20 13.3
2017-Oct-22 00:15 13.3
2017-Oct-22 00:10 13.3
2017-Oct-22 00:05 13.9
2017-Oct-22 00:00 13.9
2017-Oct-21 23:55 13.9
2017-Oct-21 23:50 090 0 gusting 3 13.9
2017-Oct-21 23:45 090 0 gusting 2 13.9
2017-Oct-21 23:40 091 0 gusting 2 13.9
2017-Oct-21 23:35 069 1 gusting 2 13.9
2017-Oct-21 23:30 14.4
2017-Oct-21 23:25 090 1 gusting 3 14.4
2017-Oct-21 23:20 089 0 gusting 3 14.4
2017-Oct-21 23:15 079 1 gusting 3 15.0
2017-Oct-21 23:10 074 1 gusting 5 15.0
2017-Oct-21 23:05 071 0 gusting 5 15.0
2017-Oct-21 23:00 072 1 gusting 4 15.0
2017-Oct-21 22:55 086 1 gusting 4 15.0
2017-Oct-21 22:50 090 1 gusting 3 15.0
2017-Oct-21 22:45 083 1 gusting 3 15.0
2017-Oct-21 22:40 087 1 gusting 4 15.0
2017-Oct-21 22:35 078 2 gusting 6 15.0
2017-Oct-21 22:30 068 3 gusting 7 15.0
2017-Oct-21 22:25 076 1 gusting 7 15.6
2017-Oct-21 22:20 081 4 gusting 6 15.6
2017-Oct-21 22:15 090 4 gusting 6 15.0
2017-Oct-21 22:10 119 1 gusting 5 15.0
2017-Oct-21 22:05 117 2 gusting 6 15.6
2017-Oct-21 22:00 091 2 gusting 6 15.6
2017-Oct-21 21:55 105 4 gusting 7 15.6
2017-Oct-21 21:50 121 6 gusting 7 15.6
2017-Oct-21 21:45 108 4 gusting 6 15.6
2017-Oct-21 21:40 104 4 gusting 6 15.6
2017-Oct-21 21:35 115 5 gusting 6 15.6
2017-Oct-21 21:30 108 3 gusting 6 15.6
2017-Oct-21 21:25 103 3 gusting 6 15.6
2017-Oct-21 21:20 118 1 gusting 5 15.6
2017-Oct-21 21:15 128 2 gusting 3 16.1
2017-Oct-21 21:10 132 0 gusting 3 16.1
2017-Oct-21 21:05 102 1 gusting 3 16.1
2017-Oct-21 21:00 085 1 gusting 4 16.1
2017-Oct-21 20:55 081 1 gusting 6 16.1
2017-Oct-21 20:50 091 1 gusting 6 16.1
2017-Oct-21 20:45 106 1 gusting 6 16.1
2017-Oct-21 20:40 104 3 gusting 6 16.1
2017-Oct-21 20:35 094 3 gusting 4 16.7
2017-Oct-21 20:30 101 2 gusting 4 16.7
2017-Oct-21 20:25 108 2 gusting 4 16.7
2017-Oct-21 20:20 100 1 gusting 3 16.7
2017-Oct-21 20:15 095 1 gusting 4 16.7
2017-Oct-21 20:10 093 3 gusting 4 16.7
2017-Oct-21 20:05 094 3 gusting 4 16.7
2017-Oct-21 20:00 106 3 gusting 4 16.7
2017-Oct-21 19:55 120 1 gusting 3 16.7
2017-Oct-21 19:50 118 1 gusting 4 16.7
2017-Oct-21 19:45 107 1 gusting 5 17.2
2017-Oct-21 19:40 091 3 gusting 5 17.2
2017-Oct-21 19:35 084 3 gusting 5 17.2
2017-Oct-21 19:30 080 1 gusting 6 17.8
2017-Oct-21 19:25 069 2 gusting 6 17.8
2017-Oct-21 19:20 059 2 gusting 4 17.8
2017-Oct-21 19:15 048 0 gusting 4 17.8
2017-Oct-21 19:10 062 2 gusting 5 17.8
2017-Oct-21 19:05 066 2 gusting 7 17.8
2017-Oct-21 19:00 055 3 gusting 7 17.8
2017-Oct-21 18:55 029 2 gusting 4 18.3
2017-Oct-21 18:50 010 1 gusting 3 18.3
2017-Oct-21 18:45 346 1 gusting 7 18.3
2017-Oct-21 18:40 349 1 gusting 7 18.3
2017-Oct-21 18:35 033 5 gusting 9 18.3
2017-Oct-21 18:30 051 3 gusting 9 18.3
2017-Oct-21 18:25 045 5 gusting 6 18.3
2017-Oct-21 18:20 040 3 gusting 4 18.3
2017-Oct-21 18:15 324 1 gusting 6 18.3
2017-Oct-21 18:10 316 2 gusting 8 18.3
2017-Oct-21 18:05 300 5 gusting 8 18.3
2017-Oct-21 18:00 277 5 gusting 8 18.9
2017-Oct-21 17:55 280 2 gusting 7 18.9
2017-Oct-21 17:50 296 4 gusting 8 18.9
2017-Oct-21 17:45 293 3 gusting 8 18.9
2017-Oct-21 17:40 302 1 gusting 6 19.4
2017-Oct-21 17:35 301 2 gusting 6 19.4
2017-Oct-21 17:30 304 2 gusting 6 19.4
2017-Oct-21 17:25 306 2 gusting 6 19.4
2017-Oct-21 17:20 277 3 gusting 6 20.0
2017-Oct-21 17:15 269 2 gusting 6 20.0
2017-Oct-21 17:10 271 1 gusting 6 20.6
2017-Oct-21 17:05 295 1 gusting 6 20.6
2017-Oct-21 17:00 303 3 gusting 7 20.6
2017-Oct-21 16:55 295 3 gusting 7 21.1
2017-Oct-21 16:50 308 3 gusting 6 21.1
2017-Oct-21 16:45 303 2 gusting 7 21.7
2017-Oct-21 16:40 282 1 gusting 7 22.2
2017-Oct-21 16:35 276 1 gusting 4 22.8
2017-Oct-21 16:30 267 2 gusting 4 23.3
2017-Oct-21 16:25 300 1 gusting 3 23.3
2017-Oct-21 16:20 307 1 gusting 3 23.3
2017-Oct-21 16:15 301 1 gusting 3 23.3
2017-Oct-21 16:10 294 1 gusting 6 23.3
2017-Oct-21 16:05 292 2 gusting 9 23.9
2017-Oct-21 16:00 313 1 gusting 9 25.0
2017-Oct-21 15:55 325 0 gusting 5 24.4
2017-Oct-21 15:50 331 3 gusting 6 24.4
2017-Oct-21 15:45 290 3 gusting 6 24.4
2017-Oct-21 15:40 268 0 gusting 5 23.9
2017-Oct-21 15:35 295 1 gusting 5 23.3
2017-Oct-21 15:30 301 0 gusting 6 22.8
2017-Oct-21 15:25 303 2 gusting 6 22.2
2017-Oct-21 15:20 318 0 gusting 3 22.2
2017-Oct-21 15:15 339 1 gusting 3 22.2
2017-Oct-21 15:10 22.2
2017-Oct-21 15:05 261 1 gusting 6 21.7
2017-Oct-21 15:00 253 2 gusting 6 22.2
2017-Oct-21 14:55 254 1 gusting 6 22.2
2017-Oct-21 14:50 256 3 gusting 7 22.2
2017-Oct-21 14:45 277 3 gusting 7 22.2
2017-Oct-21 14:40 269 3 gusting 6 22.2
2017-Oct-21 14:35 266 3 gusting 6 22.2
2017-Oct-21 14:30 257 1 gusting 9 22.2
2017-Oct-21 14:25 245 6 gusting 9 22.2
2017-Oct-21 14:20 245 6 gusting 9 22.2
2017-Oct-21 14:15 251 4 gusting 7 22.2
2017-Oct-21 14:10 256 6 gusting 7 22.2
2017-Oct-21 14:05 254 4 gusting 6 22.2
2017-Oct-21 14:00 265 1 gusting 8 22.2
2017-Oct-21 13:55 259 4 gusting 8 22.2
2017-Oct-21 13:50 266 3 gusting 6 22.8
2017-Oct-21 13:45 269 2 gusting 6 23.3
2017-Oct-21 13:40 258 3 gusting 7 23.3
2017-Oct-21 13:35 247 2 gusting 7 22.8
2017-Oct-21 13:30 255 4 gusting 9 22.8
2017-Oct-21 13:25 270 3 gusting 9 23.3
2017-Oct-21 13:20 245 1 gusting 8 23.3
2017-Oct-21 13:15 240 1 gusting 6 23.9
2017-Oct-21 13:10 238 3 gusting 8 23.9
2017-Oct-21 13:05 235 4 gusting 10 23.3
2017-Oct-21 13:00 246 5 gusting 10 22.8
2017-Oct-21 12:55 252 7 gusting 10 22.8
2017-Oct-21 12:50 239 1 gusting 8 22.2
2017-Oct-21 12:45 238 5 gusting 8 22.8
2017-Oct-21 12:40 231 2 gusting 7 22.8
2017-Oct-21 12:35 229 3 gusting 8 22.2
2017-Oct-21 12:30 237 6 gusting 9 22.2
2017-Oct-21 12:25 243 6 gusting 9 22.8
2017-Oct-21 12:20 246 4 gusting 9 22.8
2017-Oct-21 12:15 276 4 gusting 7 22.2
2017-Oct-21 12:10 264 5 gusting 7 21.7
2017-Oct-21 12:05 242 3 gusting 7 21.7
2017-Oct-21 12:00 257 4 gusting 7 21.7
2017-Oct-21 11:55 256 5 gusting 6 21.7
2017-Oct-21 11:50 252 2 gusting 6 22.2
2017-Oct-21 11:45 263 1 gusting 6 21.7
2017-Oct-21 11:40 243 4 gusting 6 21.7
2017-Oct-21 11:35 221 3 gusting 6 21.7
2017-Oct-21 11:30 260 3 gusting 7 21.7
2017-Oct-21 11:25 270 1 gusting 7 21.7
2017-Oct-21 11:20 249 3 gusting 6 21.7
2017-Oct-21 11:15 248 1 gusting 5 21.7
2017-Oct-21 11:10 234 3 gusting 6 21.1
2017-Oct-21 11:05 244 3 gusting 9 20.6
2017-Oct-21 11:00 246 5 gusting 9 20.6
2017-Oct-21 10:55 232 3 gusting 9 21.1
2017-Oct-21 10:50 229 5 gusting 9 20.6
2017-Oct-21 10:45 229 2 gusting 6 20.6
2017-Oct-21 10:40 245 3 gusting 6 20.0
2017-Oct-21 10:35 255 1 gusting 6 20.0
2017-Oct-21 10:30 253 3 gusting 6 20.0
2017-Oct-21 10:25 244 2 gusting 6 20.0
2017-Oct-21 10:20 240 3 gusting 6 19.4
2017-Oct-21 10:15 245 4 gusting 6 20.0
2017-Oct-21 10:10 245 2 gusting 6 19.4
2017-Oct-21 10:05 235 2 gusting 7 18.3
2017-Oct-21 10:00 239 4 gusting 7 17.8
2017-Oct-21 09:55 257 3 gusting 6 17.8
2017-Oct-21 09:50 247 1 gusting 5 17.8
2017-Oct-21 09:45 251 3 gusting 6 17.8
2017-Oct-21 09:40 250 1 gusting 6 17.8
2017-Oct-21 09:35 239 3 gusting 6 17.8
2017-Oct-21 09:30 234 3 gusting 6 17.8
2017-Oct-21 09:25 229 3 gusting 6 17.8
2017-Oct-21 09:20 241 3 gusting 6 17.8
2017-Oct-21 09:15 258 3 gusting 4 17.8
2017-Oct-21 09:10 192 1 gusting 1 17.8
2017-Oct-21 09:05 17.8
2017-Oct-21 09:00 17.8
2017-Oct-21 08:55 151 0 gusting 2 17.2
2017-Oct-21 08:50 141 0 gusting 2 17.2
2017-Oct-21 08:45 16.7
2017-Oct-21 08:40 16.7
2017-Oct-21 08:35 16.7
2017-Oct-21 08:30 16.7
2017-Oct-21 08:25 110 0 gusting 1 16.1
2017-Oct-21 08:20 105 0 gusting 1 16.1
2017-Oct-21 08:15 111 0 gusting 1 16.1
2017-Oct-21 08:10 108 0 gusting 1 16.1
2017-Oct-21 08:05 15.6
2017-Oct-21 08:00 15.6